TimeMDT,TemperatureF,Dew PointF,Humidity,Sea Level PressureIn,VisibilityMPH,Wind Direction,Wind SpeedMPH,Gust SpeedMPH,PrecipitationIn,Events,Conditions,WindDirDegrees,DateUTC
12:15 AM,78.8,41.0,26,30.26,10.0,WNW,11.5,-,N/A,,Clear,290,2013-08-30 06:15:00
12:35 AM,77.0,41.0,28,30.26,10.0,NW,5.8,-,N/A,,Clear,310,2013-08-30 06:35:00
12:55 AM,77.0,41.0,28,30.26,10.0,WNW,6.9,-,N/A,,Clear,290,2013-08-30 06:55:00
1:15 AM,77.0,41.0,28,30.26,10.0,Calm,Calm,-,N/A,,Clear,0,2013-08-30 07:15:00
1:35 AM,77.0,41.0,28,30.25,10.0,NE,4.6,-,N/A,,Clear,40,2013-08-30 07:35:00
1:54 AM,75.2,41.0,29,30.24,10.0,Calm,Calm,-,N/A,,Clear,0,2013-08-30 07:54:00
2:15 AM,75.2,41.0,29,30.24,10.0,Calm,Calm,-,N/A,,Clear,0,2013-08-30 08:15:00
2:35 AM,75.2,41.0,29,30.25,10.0,Calm,Calm,-,N/A,,Clear,0,2013-08-30 08:35:00
2:55 AM,75.2,41.0,29,30.24,10.0,South,3.5,-,N/A,,Clear,190,2013-08-30 08:55:00
3:15 AM,73.4,44.6,36,30.24,10.0,Calm,Calm,-,N/A,,Clear,0,2013-08-30 09:15:00
3:35 AM,71.6,44.6,38,30.24,10.0,Calm,Calm,-,N/A,,Clear,0,2013-08-30 09:35:00
3:55 AM,73.4,44.6,36,30.24,10.0,Calm,Calm,-,N/A,,Clear,0,2013-08-30 09:55:00
4:15 AM,73.4,44.6,36,30.24,10.0,Calm,Calm,-,N/A,,Clear,0,2013-08-30 10:15:00
4:34 AM,71.6,46.4,41,30.24,10.0,Calm,Calm,-,N/A,,Clear,0,2013-08-30 10:34:00
4:54 AM,71.6,44.6,38,30.24,10.0,NW,6.9,-,N/A,,Clear,320,2013-08-30 10:54:00
5:15 AM,71.6,44.6,38,30.24,10.0,Calm,Calm,-,N/A,,Clear,0,2013-08-30 11:15:00
5:35 AM,73.4,41.0,31,30.24,10.0,NW,9.2,-,N/A,,Clear,320,2013-08-30 11:35:00
5:47 AM,73.4,41.0,31,30.24,20.0,NW,6.9,-,N/A,,Mostly Cloudy,320,2013-08-30 11:47:00
5:55 AM,69.8,44.6,40,30.25,10.0,NE,4.6,-,N/A,,Clear,40,2013-08-30 11:55:00
7:47 AM,71.6,44.6,38,30.28,50.0,Calm,Calm,-,N/A,,Mostly Cloudy,0,2013-08-30 13:47:00
8:47 AM,73.4,48.2,41,30.28,50.0,Calm,Calm,-,N/A,,Mostly Cloudy,0,2013-08-30 14:47:00
9:55 AM,78.8,42.8,28,30.28,50.0,West,3.5,-,N/A,,Mostly Cloudy,270,2013-08-30 15:55:00
10:47 AM,80.6,44.6,28,30.27,50.0,Calm,Calm,-,N/A,,Mostly Cloudy,0,2013-08-30 16:47:00
11:47 AM,82.4,44.6,26,30.27,50.0,Variable,4.6,-,N/A,,Mostly Cloudy,0,2013-08-30 17:47:00
12:48 PM,86.0,41.0,20,30.25,50.0,Variable,4.6,-,N/A,,Mostly Cloudy,0,2013-08-30 18:48:00
1:23 PM,89.6,39.2,17,30.23,50.0,SE,10.4,-,N/A,,Mostly Cloudy,130,2013-08-30 19:23:00
1:50 PM,89.6,39.2,17,30.23,50.0,ESE,4.6,-,N/A,,Mostly Cloudy,110,2013-08-30 19:50:00
2:46 PM,84.2,44.6,25,30.23,50.0,SW,11.5,17.3,N/A,,Light Drizzle,220,2013-08-30 20:46:00
3:47 PM,82.4,42.8,25,30.23,50.0,SSW,18.4,25.3,N/A,,Mostly Cloudy,200,2013-08-30 21:47:00
4:47 PM,78.8,46.4,32,30.21,40.0,SSW,12.7,19.6,N/A,,Mostly Cloudy,210,2013-08-30 22:47:00
6:46 PM,77.0,46.4,34,30.21,40.0,SSE,9.2,-,N/A,,Mostly Cloudy,160,2013-08-31 00:46:00
7:47 PM,75.2,48.2,38,30.21,40.0,WSW,5.8,-,N/A,,Mostly Cloudy,240,2013-08-31 01:47:00
8:45 PM,77.0,44.6,32,30.22,30.0,West,8.1,-,N/A,,Mostly Cloudy,280,2013-08-31 02:45:00
9:49 PM,75.2,48.2,38,30.22,20.0,West,8.1,-,N/A,,Mostly Cloudy,280,2013-08-31 03:49:00
11:15 PM,73.4,46.4,38,30.19,10.0,SSW,8.1,-,N/A,,Clear,200,2013-08-31 05:15:00
11:35 PM,75.2,44.6,34,30.19,10.0,SSW,8.1,-,N/A,,Clear,210,2013-08-31 05:35:00
11:55 PM,78.8,39.2,24,30.18,10.0,WSW,8.1,-,N/A,,Clear,240,2013-08-31 05:55:00